STARLINK-4196 (52859 NORAD) Tracking and Keplerian Element Data

This shows tracking and keplerian element data for the satellite.

Feedback or suggestion? Click here.




ElementValue
Catalog52859
NameSTARLINK-4196
Epoch Orbit1628
Epoch Day270.25001157
Epoch Year2022
RAAN277.9514
Inclination53.2156
Eccentricity0.0001816
Argument of Perigee51.448
Mean Anonmoly281.9035
Mean Motion15.08849245
Decay Rate-0.00019676
L11 52859U 22062AF 22270.25001157 -.00019676 00000+0 -12212-2 0 9995
L22 52859 53.2156 277.9514 0001816 51.4480 281.9035 15.08849245 16287

Live tracking and technical data element details for STARLINK-4196 (NORAD 52859). STARLINK-4196 can be tracked NOW for your location showing map with azimuth and elevation plus other details from your city location.

Track the satellite on the map from your city or location and see movement details for azimuth, elevation, latitude, longitude, range, height, and movement on the map or in text.







IsCatalogInMostPopularTable: catalog: 52859, numindb: 6
Update: records affected: 1



GetName: 52859 STARLINK-4196

Hit Count: updated at: Thu, 06 Oct 2022 04:42:46 GMT